Frenchville, ME

8:44 AM EST on November 23, 2017 (GMT -0500)
Northern Aroostook Regional

Weather History for KFVE - March, 2013

Change the Weather History Date:

Tuesday, March 19, 2013

  Actual Average Record
Temperature  
Mean Temperature 15 °F 24 °F  
Max Temperature 26 °F 33 °F 49 °F (2012)
Min Temperature 4 °F 16 °F 1 °F (2014)
Degree Days  
Heating Degree Days 50    
Month to date heating degree days 723  
Since 1 July heating degree days 7213  
Cooling Degree Days 0    
Month to date cooling degree days 0  
Year to date cooling degree days 0  
Moisture  
Dew Point 1 °F    
Average Humidity 52    
Maximum Humidity 70    
Minimum Humidity 34    
Precipitation  
Precipitation 0.01 in 0.05 in 0.63 in (2008)
Month to date precipitation 0.41 0.71  
Year to date precipitation 2.63 3.28  
Sea Level Pressure  
Sea Level Pressure 30.11 in    
Wind  
Wind Speed 7 mph (East)    
Max Wind Speed 17 mph    
Max Gust Speed 22 mph    
Visibility 10 miles    
Events Snow    
T = Trace of Precipitation, MM = Missing Value Source: NWS Daily Summary

Daily Weather History Graph

Daily Weather History Graph

Search for Another Location

Airport or City:

Trip Planner

Search our weather history database for the weather conditions in past years. The results will help you decide how hot, cold, wet, or windy it might be!

Date:

Astronomy

Mar. 19, 2013 Rise Set
Actual Time 6:37 AM EDT 6:44 PM EDT
Civil Twilight 6:07 AM EDT 7:15 PM EDT
Nautical Twilight 5:31 AM EDT 7:51 PM EDT
Astronomical Twilight 4:54 AM EDT 8:28 PM EDT
Moon 11:02 AM EDT (3/19) 1:51 AM EDT (3/19)
Length of Visible Light 13h 08m
Length of Day
12h 07m
Waxing Crescent, 49% of the Moon is Illuminated
Mar 19
Waxing Crescent
Mar 19
First Quarter
Mar 27
Full
Apr 3
Last Quarter
Apr 10
New

Hourly Weather History & Observations

Time (EDT) Temp. Windchill Dew Point Humidity Pressure Visibility Wind Dir Wind Speed Gust Speed Precip Events Conditions
12:53 AM 10.0 °F 3.6 °F -4.0 °F 53% 30.29 in 10.0 mi ENE 3.5 mph - N/A   Clear
1:53 AM 8.1 °F -2.0 °F -2.9 °F 61% 30.32 in 10.0 mi SW 5.8 mph - N/A   Clear
2:53 AM 8.1 °F -0.5 °F -2.0 °F 64% 30.28 in 10.0 mi NNE 4.6 mph - N/A   Clear
3:53 AM 8.1 °F - -2.0 °F 64% 30.27 in 10.0 mi Calm Calm - N/A   Clear
4:53 AM 10.0 °F - -0.9 °F 61% 30.27 in 10.0 mi Calm Calm - N/A   Clear
5:53 AM 7.0 °F - -2.0 °F 67% 30.26 in 10.0 mi Calm Calm - N/A   Clear
6:53 AM 8.1 °F -0.5 °F -0.9 °F 67% 30.27 in 10.0 mi East 4.6 mph - N/A   Clear
7:53 AM 7.0 °F -3.3 °F -0.9 °F 70% 30.27 in 10.0 mi East 5.8 mph - N/A   Clear
8:53 AM 10.0 °F -0.9 °F -0.9 °F 61% 30.27 in 10.0 mi East 6.9 mph - N/A   Clear
9:53 AM 12.0 °F 1.5 °F -0.0 °F 59% 30.25 in 10.0 mi East 6.9 mph - N/A   Clear
10:53 AM 15.1 °F 2.5 °F -0.9 °F 49% 30.22 in 10.0 mi ESE 10.4 mph - N/A   Partly Cloudy
11:53 AM 18.0 °F 5.4 °F 1.0 °F 48% 30.18 in 10.0 mi SE 11.5 mph - N/A   Mostly Cloudy
12:53 PM 19.9 °F 7.9 °F 1.0 °F 44% 30.15 in 10.0 mi ESE 11.5 mph 16.1 mph N/A   Overcast
1:53 PM 21.9 °F 12.5 °F -0.0 °F 38% 30.12 in 10.0 mi ENE 8.1 mph - N/A   Overcast
2:53 PM 24.1 °F 15.2 °F 1.9 °F 38% 30.08 in 10.0 mi East 8.1 mph - N/A   Overcast
3:53 PM 25.0 °F 14.8 °F 1.0 °F 36% 30.05 in 10.0 mi ENE 10.4 mph - N/A   Overcast
4:53 PM 25.0 °F 14.8 °F 1.0 °F 36% 30.02 in 10.0 mi East 10.4 mph - N/A   Overcast
5:53 PM 26.1 °F 20.5 °F 1.0 °F 34% 30.00 in 10.0 mi East 4.6 mph - N/A   Overcast
6:53 PM 26.1 °F 16.2 °F 1.0 °F 34% 29.97 in 10.0 mi East 10.4 mph - N/A   Overcast
7:53 PM 25.0 °F 14.2 °F 3.0 °F 39% 29.95 in 10.0 mi East 11.5 mph 18.4 mph N/A   Overcast
8:53 PM 24.1 °F 13.1 °F 5.0 °F 44% 29.92 in 10.0 mi East 11.5 mph 20.7 mph N/A   Overcast
9:53 PM 23.0 °F 12.4 °F 6.1 °F 48% 29.92 in 10.0 mi East 10.4 mph - N/A   Overcast
10:49 PM 19.4 °F 7.9 °F 8.6 °F 63% 29.84 in 4.0 mi East 10.4 mph 21.9 mph 0.00 in Snow Light Snow
10:53 PM 21.0 °F 11.4 °F 8.1 °F 57% 29.88 in 4.0 mi East 8.1 mph 21.9 mph 0.00 in Snow Light Snow
11:00 PM 21.2 °F 10.9 °F 6.8 °F 54% 29.83 in 9.0 mi East 9.2 mph 17.3 mph 0.00 in   Overcast
11:53 PM 19.9 °F 10.1 °F 8.1 °F 60% 29.85 in 10.0 mi ENE 8.1 mph - 0.00 in   Overcast